Regional Weather Roundup
Issued by NWS

Home | Current Version | Previous Version | Text Only | Print | Product List | Glossary On
Versions: 1 2 3 4 5 6 7 8 9 10 11 12 13 14 15 16 17 18 19 20 21 22 23 24 25 26 27 28
000
ASUS42 KKEY 271810
RWRKEY

FLORIDA REGIONAL WEATHER ROUNDUP FOR THE FLORIDA KEYS
NATIONAL WEATHER SERVICE KEY WEST FLORIDA
200 PM EDT MON MAR 27 2017

...SOUTH FLORIDA AND THE KEYS...

CITY           SKY/WX    TMP DP  RH WIND       PRES   REMARKS
FORT MYERS     PTSUNNY   84  55  36 N6        30.07F
SW REGIONAL AP MOSUNNY   82  54  37 E12G18    30.07F
NAPLES         MOSUNNY   82  57  42 E7        30.06F
MIAMI          PTSUNNY   81  62  52 E9G17     30.07F
WEST KENDALL   MOSUNNY   83  62  49 SE12G18   30.06F
HOMESTEAD      SUNNY     79  64  59 NE12      30.06F
MARATHON       PTSUNNY   83  66  56 NE12      30.06F
BOCA CHICA NAS MOSUNNY   80  66  62 N13       30.06F
KEY WEST INTL  SUNNY     81  66  60 N13G20    30.06F

...INTERNATIONAL WEATHER...

CITY           SKY/WX    TMP DP  RH WIND       PRES   REMARKS
NASSAU BAHAMAS MOSUNNY   82  57  42 N12       30.05F
CANCUN MEXICO  MOSUNNY   82  68  61 E14       30.01S
COZUMEL MEXICO MOSUNNY   84  66  54 SE14      29.97F

ADJACENT COASTAL WATERS...

STATION/POSITION TIME  SKY/WX   TEMP    WIND        PRES    WAVE
                                AIR SEA DIR/SP/G            HT/PER
                 (UTC)          (F)     (DEG/KT/KT) (MB)    (FT/S)
PULASKI SHOAL LI 1800            73      60/ 13/ 15 1018.3F
SAND KEY         1750            74      40/ 14/ 16 1018.4F
LONG KEY         1700            75 76   60/ 10/ 12 1018.7F
MOLASSES REEF    1700            75 78   40/  6/  8 1018.8F
FOWEY ROCKS      1800            75 76   70/  9/ 10 1018.7F
Buoy 42097       1800                                 N/A     2/ 4

$$




USA.gov is the U.S. government's official web portal to all federal, state and local government web resources and services.